Wind_Speed
8 8 8 7 7 7 7 7 7 7 7 8 7 8 8 8 8 8 8 8 8 8 8 8 9 9 10 10 9 9 9 9 9 9 9 10 10 10 11 11 12 11 11
8 7 7 7 7 7 7 7 7 7 7 8 8 8 8 8 8 8 8 8 8 8 8 9 9 9 9 10 10 10 10 9 10 10 10 10 10 11 11 11 12 12 12
8 7 8 8 7 7 7 8 8 8 8 8 9 9 9 9 9 8 8 9 8 8 9 9 9 10 10 10 9 9 9 9 10 11 11 11 12 12 12 12 13 13 12
8 8 8 8 7 8 8 8 8 8 8 9 10 10 10 9 9 9 9 9 9 9 9 9 10 10 10 10 9 9 9 9 10 10 11 11 12 13 13 14 14 14 13
9 8 8 8 8 8 8 8 8 8 9 9 10 10 10 9 9 9 9 10 10 10 10 9 10 10 10 9 10 10 10 10 10 10 11 12 12 12 12 13 13 13 12
9 9 9 9 9 8 8 9 9 9 9 9 9 10 9 9 9 10 10 10 10 11 10 10 11 10 10 10 10 10 10 10 11 11 11 11 11 10 10 10 11 11 11
9 10 10 10 10 10 9 10 10 9 9 9 10 10 10 10 10 10 10 11 11 12 12 12 11 11 11 11 10 10 10 10 10 10 11 11 11 10 10 10 10 10 11
10 10 10 10 10 10 11 10 10 10 10 10 10 11 11 11 11 11 11 12 12 12 12 12 12 12 12 12 12 12 11 10 10 10 10 11 12 12 11 11 11 12 12
10 11 11 10 10 10 11 11 11 11 11 11 11 11 11 12 12 12 12 12 12 12 12 12 13 13 12 12 12 13 12 11 11 11 11 10 10 11 12 12 12 12 13
11 11 11 10 10 11 11 11 11 11 11 11 11 11 11 12 12 12 12 12 12 12 13 13 13 13 13 12 13 12 12 12 12 11 11 11 11 11 11 12 13 13 13
11 11 12 11 11 11 12 12 12 12 12 11 12 12 12 12 12 12 12 12 12 12 13 13 13 13 13 13 13 12 12 12 12 12 12 12 12 12 12 12 12 13 13
12 12 12 12 12 13 13 13 12 12 12 12 12 12 12 12 12 13 13 13 13 13 13 13 13 13 13 13 13 12 12 12 13 13 13 12 12 12 12 11 11 12 12
12 13 13 12 13 13 13 13 12 12 13 13 13 13 13 13 14 14 14 14 14 14 14 14 14 14 14 13 13 13 13 13 13 13 13 12 12 11 11 11 11 11 11
13 13 13 13 13 13 13 13 12 12 13 13 13 13 14 14 14 14 14 14 14 14 14 14 13 13 13 13 13 13 14 14 13 13 13 13 12 12 11 11 12 13 13
14 14 13 14 14 13 13 13 13 13 13 13 13 14 14 14 14 14 15 14 15 15 14 14 13 13 13 13 13 13 13 14 14 14 14 13 13 13 13 12 13 13 14
14 14 15 14 14 14 14 14 14 14 14 14 14 14 14 14 15 15 14 15 15 15 14 14 14 14 13 14 14 14 14 14 14 14 14 14 14 13 13 14 13 14 14
15 15 15 14 14 15 15 15 15 14 15 15 15 15 15 15 15 15 15 15 15 15 15 15 14 14 15 14 15 15 15 15 15 15 15 15 15 14 14 14 14 14 15
16 16 16 16 15 16 16 16 16 16 16 16 16 16 16 16 16 16 16 16 16 16 15 15 15 15 15 15 15 16 16 16 16 16 16 16 16 16 16 16 15 16 16
17 17 17 17 17 17 18 18 17 17 17 17 17 17 18 17 17 17 17 17 17 17 16 16 16 15 15 16 16 16 17 17 17 17 16 16 17 16 16 17 17 17 17
18 18 18 18 18 19 19 19 19 18 18 18 19 19 19 19 18 18 18 18 18 18 18 18 18 17 17 17 17 17 17 17 18 17 17 17 18 17 18 18 18 19 19
19 19 19 19 19 19 19 19 20 20 20 20 20 20 20 20 20 20 20 20 20 20 20 19 19 19 19 19 18 18 18 18 19 19 18 19 19 19 19 19 19 19 19
21 21 20 20 20 20 20 21 21 21 21 21 21 22 22 22 21 21 21 21 21 21 21 21 20 20 21 20 20 20 20 19 20 20 20 20 21 21 21 21 21 21 21
23 23 22 22 21 21 21 21 21 22 22 22 22 22 23 23 23 22 22 22 22 22 22 22 22 22 21 21 21 22 22 22 21 21 21 21 22 22 22 22 22 22 23
25 25 24 23 23 22 22 23 23 23 24 24 24 24 24 23 23 23 23 23 23 23 23 23 23 23 23 23 22 23 22 22 22 22 22 22 23 23 23 23 23 24 24
26 26 25 25 24 24 24 25 25 25 25 25 25 25 25 25 24 24 24 24 24 24 24 24 24 24 24 24 24 24 24 24 24 23 23 23 24 24 24 24 24 25 25
26 25 26 26 26 26 26 26 26 26 26 26 26 26 26 27 26 26 26 25 25 26 26 25 25 25 25 25 26 25 26 25 25 25 25 25 25 26 25 25 25 26 26
Wind_Direction
295 298 297 295 293 292 289 287 291 293 293 290 291 292 292 293 294 294 287 284 285 285 287 289 288 288 287 288 286 282 275 269 270 267 266 267 268 268 269 270 266 264 259
293 294 298 298 295 293 291 293 293 291 291 286 285 290 294 294 294 294 292 287 283 283 285 290 292 290 289 288 283 278 274 269 266 264 264 266 268 267 269 271 265 262 259
291 291 292 294 294 293 293 293 293 291 289 289 287 288 291 293 292 289 286 284 288 287 287 289 291 292 290 290 288 284 279 273 267 265 267 268 267 268 268 269 262 258 256
292 294 295 292 288 286 287 288 292 295 293 292 291 292 295 293 290 285 282 280 282 285 286 287 287 290 291 291 293 292 286 279 273 271 270 270 270 271 270 266 259 256 256
289 292 294 295 291 286 289 290 293 293 293 294 294 294 294 291 288 285 282 281 281 284 285 285 285 288 291 293 294 292 289 283 277 278 276 273 273 273 274 268 255 250 254
285 288 289 290 292 288 290 290 290 291 290 292 293 295 294 291 289 287 285 282 283 283 282 284 284 285 288 290 294 293 291 287 282 279 281 280 276 279 283 271 257 250 252
281 284 288 292 292 290 290 291 289 290 290 291 293 296 294 292 289 288 286 284 283 282 281 283 283 283 282 284 287 289 292 290 290 289 288 282 280 280 282 276 267 260 258
280 281 288 292 293 291 287 288 289 289 288 290 292 294 295 292 289 286 285 285 284 283 283 283 283 284 282 281 281 285 289 291 290 290 289 283 281 280 278 271 267 266 264
280 282 283 286 287 288 287 287 287 287 286 287 290 291 293 292 290 288 286 284 283 283 284 286 285 286 285 281 279 282 286 289 290 290 288 287 283 280 275 271 270 269 268
279 282 284 284 282 284 285 285 284 284 285 286 289 289 290 291 289 286 286 286 285 285 285 284 283 283 283 282 280 280 283 287 289 291 289 288 288 285 279 274 272 269 268
279 281 283 281 282 282 281 282 281 282 283 285 287 289 289 289 289 286 287 287 287 287 287 284 281 280 280 281 280 279 280 281 283 285 287 289 288 287 283 277 275 272 269
280 281 283 283 282 281 280 279 279 279 279 283 285 289 291 292 292 291 290 289 288 287 287 287 283 280 280 280 279 277 279 280 282 284 284 288 289 287 285 283 279 275 272
282 281 282 285 284 284 282 279 278 279 278 281 285 288 290 290 290 291 289 288 288 289 287 287 283 279 279 279 278 276 277 278 281 283 284 289 287 287 287 284 282 276 273
283 281 280 279 281 284 286 285 280 280 280 281 284 288 289 289 290 291 290 289 288 290 288 286 282 278 277 277 277 278 277 277 279 283 284 285 286 287 286 283 282 279 277
282 283 279 278 278 279 281 283 282 280 282 283 286 287 288 289 290 293 292 291 290 291 290 287 284 281 278 277 279 279 278 277 277 278 282 282 285 286 286 286 284 282 281
281 283 280 279 280 280 281 280 281 282 284 285 286 287 289 290 291 292 292 291 291 290 290 288 285 281 279 277 277 278 278 277 275 275 279 281 284 285 283 283 283 282 281
280 282 281 280 279 280 281 282 282 283 284 284 286 289 289 290 291 292 291 291 291 290 288 288 284 277 276 276 275 274 275 276 277 277 278 279 283 284 282 281 282 282 282
278 279 279 278 279 280 279 282 283 283 283 283 284 286 288 290 290 292 292 291 290 290 289 289 285 279 274 274 274 273 273 275 275 277 278 279 281 281 280 280 281 283 283
276 277 278 279 278 278 279 281 282 284 284 283 283 285 287 288 288 289 290 289 288 287 288 288 285 284 282 279 277 274 272 272 273 275 275 277 279 280 280 280 282 283 284
277 277 278 280 279 279 278 279 282 284 284 283 283 284 286 287 287 288 288 289 288 287 286 286 285 284 284 283 281 278 276 275 274 274 274 276 277 277 279 280 282 283 284
278 278 280 280 279 279 278 278 280 283 283 283 283 283 285 286 285 285 286 288 287 286 284 283 283 283 281 279 278 277 277 277 277 276 276 277 276 276 277 279 281 282 283
276 277 278 279 278 277 277 278 279 280 281 282 282 283 284 285 284 284 285 286 286 285 283 282 281 281 281 278 276 277 277 277 277 277 277 278 278 278 279 279 280 280 280
276 276 276 276 276 278 278 278 278 279 280 281 282 284 285 286 285 283 283 284 284 283 282 281 280 280 279 279 279 277 276 276 277 277 277 278 278 277 278 279 280 281 281
275 274 274 273 273 275 275 276 278 279 278 279 280 282 283 284 286 284 284 284 283 282 281 280 280 279 277 277 278 279 277 276 277 277 278 279 279 278 278 278 278 279 280
276 274 272 272 273 275 276 276 277 278 279 280 280 281 281 281 282 282 282 281 282 281 280 280 279 279 277 275 276 277 275 275 276 277 280 281 280 278 278 278 278 278 278
275 274 273 272 272 274 275 276 276 277 278 280 280 282 282 281 280 280 280 280 281 281 280 279 278 278 277 275 275 275 274 275 276 277 279 280 280 280 279 279 280 280 280
Height
5860 5860 5860 5860 5860 5860 5860 5860 5860 5860 5860 5860 5860 5860 5860 5859 5859 5859 5859 5859 5859 5859 5859 5859 5859 5858 5858 5858 5858 5858 5857 5858 5858 5858 5859 5859 5859 5859 5860 5860 5861 5861 5861
5859 5859 5859 5859 5859 5859 5859 5859 5858 5858 5858 5858 5858 5858 5858 5858 5858 5857 5857 5857 5857 5857 5857 5857 5857 5856 5856 5856 5855 5855 5855 5855 5855 5856 5856 5857 5857 5857 5857 5857 5858 5858 5859
5858 5857 5857 5857 5857 5857 5857 5857 5857 5857 5857 5857 5857 5857 5856 5856 5856 5856 5855 5855 5855 5855 5855 5855 5855 5855 5854 5854 5853 5853 5853 5853 5853 5853 5853 5854 5854 5854 5854 5854 5854 5855 5855
5856 5856 5856 5856 5856 5856 5856 5855 5855 5855 5855 5855 5855 5855 5854 5854 5854 5854 5853 5853 5854 5853 5853 5853 5853 5853 5852 5852 5851 5851 5851 5851 5851 5851 5851 5851 5851 5851 5850 5849 5849 5851 5852
5854 5854 5854 5854 5854 5854 5854 5854 5854 5853 5853 5853 5853 5853 5852 5852 5852 5851 5851 5851 5851 5851 5851 5851 5851 5851 5850 5850 5849 5849 5849 5848 5848 5848 5848 5848 5848 5847 5845 5842 5842 5846 5848
5852 5852 5852 5852 5852 5852 5852 5852 5852 5852 5852 5851 5851 5851 5850 5850 5849 5849 5849 5849 5849 5849 5849 5849 5848 5848 5848 5848 5847 5847 5846 5846 5846 5846 5846 5845 5845 5844 5843 5840 5840 5843 5846
5850 5850 5850 5850 5850 5850 5850 5850 5850 5850 5849 5849 5849 5849 5848 5847 5847 5847 5847 5846 5846 5846 5846 5846 5846 5845 5845 5845 5845 5844 5844 5844 5843 5843 5843 5842 5842 5842 5841 5841 5840 5842 5843
5847 5847 5848 5848 5848 5848 5848 5847 5847 5847 5847 5847 5847 5846 5846 5846 5845 5845 5844 5844 5844 5844 5843 5843 5843 5843 5843 5842 5842 5842 5842 5841 5841 5840 5840 5840 5839 5839 5839 5840 5840 5840 5841
5845 5845 5845 5845 5845 5845 5845 5845 5845 5844 5844 5844 5844 5844 5844 5843 5843 5842 5841 5841 5841 5841 5840 5840 5840 5839 5839 5839 5839 5839 5839 5838 5838 5838 5837 5837 5837 5836 5837 5837 5837 5837 5838
5842 5842 5842 5842 5842 5842 5842 5842 5842 5842 5842 5842 5841 5841 5841 5840 5840 5840 5839 5838 5838 5838 5837 5837 5836 5836 5836 5836 5836 5836 5836 5836 5835 5835 5834 5834 5834 5834 5834 5834 5834 5834 5834
5839 5839 5839 5839 5839 5839 5839 5839 5839 5839 5839 5838 5838 5838 5837 5837 5837 5836 5836 5836 5835 5835 5834 5833 5833 5833 5833 5832 5833 5833 5833 5833 5832 5832 5832 5831 5831 5831 5830 5830 5830 5830 5831
5835 5836 5836 5836 5836 5836 5836 5836 5835 5835 5835 5835 5835 5835 5834 5834 5833 5833 5833 5832 5832 5832 5831 5830 5830 5829 5829 5829 5829 5829 5830 5829 5829 5829 5829 5828 5828 5828 5827 5827 5827 5827 5827
5832 5832 5833 5833 5832 5832 5832 5832 5832 5832 5832 5832 5831 5831 5831 5830 5830 5830 5829 5829 5828 5828 5828 5827 5826 5826 5826 5826 5826 5826 5826 5826 5826 5826 5825 5825 5825 5825 5824 5824 5824 5824 5824
5829 5829 5829 5829 5829 5829 5829 5829 5829 5829 5829 5828 5828 5828 5828 5827 5826 5826 5826 5825 5825 5824 5824 5823 5823 5822 5822 5822 5822 5822 5822 5822 5822 5822 5822 5822 5822 5821 5821 5821 5820 5820 5820
5825 5825 5825 5825 5825 5826 5826 5826 5826 5826 5825 5825 5825 5825 5824 5824 5823 5822 5822 5821 5821 5821 5820 5819 5819 5818 5818 5818 5818 5818 5818 5818 5818 5819 5818 5818 5818 5818 5817 5817 5817 5817 5816
5821 5822 5822 5822 5822 5822 5822 5822 5822 5822 5822 5822 5821 5821 5821 5820 5819 5819 5818 5817 5817 5817 5816 5815 5815 5815 5814 5814 5814 5814 5814 5814 5814 5815 5815 5814 5814 5814 5814 5813 5813 5813 5812
5818 5818 5818 5818 5819 5819 5819 5819 5819 5819 5818 5818 5818 5817 5817 5816 5816 5815 5814 5813 5813 5812 5812 5811 5811 5810 5810 5810 5810 5810 5810 5810 5810 5810 5810 5810 5810 5810 5810 5809 5809 5809 5808
5814 5814 5814 5815 5815 5815 5815 5815 5815 5815 5814 5814 5814 5813 5813 5812 5811 5811 5810 5809 5808 5808 5808 5807 5806 5806 5805 5805 5805 5805 5805 5806 5806 5806 5806 5806 5805 5805 5805 5805 5805 5804 5804
5810 5810 5810 5810 5810 5811 5811 5811 5810 5810 5810 5810 5809 5809 5808 5808 5807 5806 5806 5805 5804 5803 5803 5802 5802 5801 5801 5801 5801 5800 5800 5801 5801 5801 5801 5801 5800 5800 5800 5800 5800 5799 5799
5805 5806 5806 5806 5806 5806 5806 5806 5806 5806 5805 5805 5804 5804 5803 5803 5802 5801 5801 5800 5799 5799 5798 5797 5797 5796 5796 5796 5796 5795 5795 5795 5795 5795 5795 5795 5795 5795 5795 5795 5794 5794 5793
5801 5801 5801 5801 5801 5801 5801 5801 5801 5800 5800 5800 5799 5799 5798 5797 5797 5796 5795 5794 5794 5793 5792 5792 5791 5791 5791 5790 5790 5790 5790 5790 5790 5790 5790 5790 5790 5790 5789 5788 5788 5787 5787
5796 5796 5796 5796 5795 5795 5795 5795 5795 5795 5794 5794 5793 5793 5792 5792 5791 5790 5789 5788 5788 5787 5786 5786 5786 5785 5785 5784 5784 5784 5784 5784 5784 5784 5784 5784 5783 5783 5783 5782 5781 5781 5780
5790 5790 5790 5790 5790 5790 5789 5789 5789 5789 5788 5788 5787 5787 5786 5786 5785 5784 5783 5782 5782 5781 5780 5780 5779 5778 5778 5778 5778 5777 5778 5778 5777 5777 5777 5777 5777 5776 5776 5775 5774 5774 5773
5783 5783 5783 5783 5783 5783 5783 5783 5783 5783 5782 5782 5781 5780 5780 5779 5778 5777 5776 5776 5775 5774 5773 5773 5772 5772 5771 5771 5771 5770 5770 5770 5771 5770 5770 5769 5769 5769 5769 5768 5767 5766 5765
5776 5776 5776 5776 5776 5776 5776 5776 5776 5776 5775 5775 5774 5773 5773 5772 5771 5770 5769 5769 5768 5767 5766 5766 5765 5764 5764 5764 5763 5763 5763 5763 5763 5763 5762 5762 5761 5761 5761 5760 5759 5758 5758
5768 5768 5768 5768 5768 5769 5768 5768 5768 5768 5768 5768 5767 5766 5765 5764 5763 5762 5762 5761 5761 5760 5759 5758 5758 5757 5756 5756 5755 5755 5755 5755 5755 5755 5755 5754 5753 5752 5753 5752 5751 5750 5749